World > North America > United States > Massachusetts > Sturbridge

Hourly Sturbridge, MA Regional Weather

Feedback E-mail the Weather

Quick WX

Sturbridge, MA Weather Maps

°F °C°F °C
Sturbridge Weather Map
UTC Time: 8/14/2022, 16:07
Your Time:

Sturbridge, MA Regional Weather

Expires:202208141700;;089838
ASUS41 KGYX 141605
RWRGYX
WEATHER ROUNDUP FOR MAINE AND NEW HAMPSHIRE
NATIONAL WEATHER SERVICE GRAY ME
1200 PM EDT SUN AUG 14 2022


MAZ007-012-024-CTZ003-RIZ002-NYZ038-NYZ072-141700-
SOUTHERN NEW ENGLAND AND NY
  
CITY           SKY/WX    TMP DP  RH WIND       PRES   REMARKS
BOSTON         MOSUNNY   77  53  43 SE9       30.03F                  
WORCESTER      MOSUNNY   74  46  36 NW9       30.07F                  
NANTUCKET      MOSUNNY   76  60  57 SW10      30.05F                  
PROVIDENCE     PTSUNNY   80  47  31 VRB3      30.05F                  
HARTFORD       MOSUNNY   80  51  36 VRB6      30.06F                  
ALBANY         MOSUNNY   75  54  47 N3        30.07F                  
NEW YORK CITY  PTSUNNY   79  50  36 VRB7      30.05F                  
$$


SKY/WX - Weather  TMP - Temperature  DP - Dew Point  RH - Humidity
WIND - Wind Direction/Speed PRES - Barometric Pressure VSB - Visibility
WCI - Wind Chill Index E13G22 Wind - East Wind 13 mph/Gusts of 22 mph

Trending Headlines

Sturbridge Radar Loop



Sturbridge Quick Facts


National Two Day Weather Forecast


E-mail the Sturbridge Weather Forecast

Voice your opinion or tell us about page issues...